This is the latest recevied weather packets stored in our database for station/object KE5KUL-13. If no packets are shown the sender has not sent any weather packets the latest 10 day(s).
| Time | Temp. | Humidity | Pressure | Rain* | Wind** | Luminosity | Snow |
|---|---|---|---|---|---|---|---|
| 1777836019 | 26.11° C | 24% | 1018.2 hPa | 0 mm | - | - | - |
| 1777835419 | 26.11° C | 25% | 1018.4 hPa | 0 mm | - | - | - |
| 1777834819 | 26.11° C | 23% | 1018.9 hPa | 0 mm | - | - | - |
| 1777834218 | 25.56° C | 25% | 1019 hPa | 0 mm | - | - | - |
| 1777833618 | 25° C | 25% | 1019.2 hPa | 0 mm | - | - | - |
| 1777833018 | 24.44° C | 25% | 1019.5 hPa | 0 mm | - | - | - |
| 1777832419 | 25° C | 23% | 1019.7 hPa | 0 mm | - | - | - |
| 1777831818 | 25° C | 25% | 1019.8 hPa | 0 mm | - | - | - |
| 1777831218 | 25° C | 25% | 1020 hPa | 0 mm | - | - | - |
| 1777830618 | 25° C | 26% | 1020.3 hPa | 0 mm | - | - | - |
| 1777830018 | 24.44° C | 27% | 1020.5 hPa | 0 mm | - | - | - |
| 1777829418 | 24.44° C | 29% | 1020.7 hPa | 0 mm | - | - | - |
| 1777828818 | 23.33° C | 30% | 1020.6 hPa | 0 mm | - | - | - |
| 1777828218 | 23.33° C | 31% | 1020.9 hPa | 0 mm | - | - | - |
| 1777827618 | 22.78° C | 31% | 1021.1 hPa | 0 mm | - | - | - |
| 1777827018 | 22.22° C | 34% | 1021.4 hPa | 0 mm | - | - | - |
| 1777826418 | 22.22° C | 34% | 1021.5 hPa | 0 mm | - | - | - |
| 1777825818 | 22.22° C | 35% | 1021.6 hPa | 0 mm | - | - | - |
| 1777825218 | 21.67° C | 37% | 1021.7 hPa | 0 mm | - | - | - |
| 1777824618 | 21.67° C | 37% | 1021.7 hPa | 0 mm | - | - | - |
| 1777824018 | 21.11° C | 39% | 1021.5 hPa | 0 mm | - | - | - |
| 1777823418 | 21.11° C | 40% | 1021.7 hPa | 0 mm | - | - | - |
| 1777822818 | 20.56° C | 41% | 1021.9 hPa | 0 mm | - | - | - |
| 1777822218 | 20.56° C | 42% | 1021.8 hPa | 0 mm | - | - | - |
| 1777821618 | 20° C | 43% | 1022.2 hPa | 0 mm | - | - | - |
* Rain latest hour (hover to see other rain measurements)
** Current wind speed in m/s (hover to see current wind gust speed)